Preview of NWS' New Version of Forecast
This preview is not operational and should not be used for support decisions.

Regional Weather Roundup (RWR)

Issued by National Weather Service (NWS)

                            
000
ASUS43 KDTX 240610
RWRMI 
MICHIGAN HOURLY REGIONAL WEATHER ROUNDUP
NATIONAL WEATHER SERVICE DETROIT/PONTIAC MI
200 AM EDT WED APR 24 2019

NOTE: "FAIR" INDICATES FEW OR NO CLOUDS BELOW 12,000 FEET WITH NO
SIGNIFICANT WEATHER AND/OR OBSTRUCTION TO VISIBILITY.

MIZ047>049-052>055-059>063-066>070-074>076-081>083-240700-
SOUTHEAST LOWER MICHIGAN
  
CITY           SKY/WX    TMP DP  RH WIND       PRES   REMARKS
ADRIAN         FAIR      45  35  68 NW7       30.02S                  
6HR MIN TEMP:  45; 6HR MAX TEMP:  54;                                

ALMA           FAIR      40  34  77 NW6       30.04S                  
6HR MIN TEMP:  40; 6HR MAX TEMP:  53;                                

ANN ARBOR      FAIR      45  36  70 N8        30.00R                  
BAD AXE        MOCLDY    40  35  80 NW7       29.99R                  
6HR MIN TEMP:  40; 6HR MAX TEMP:  46;                                

CARO           FAIR      40  35  83 W3        30.00S                  
DETROIT CITY   FAIR      45  34  65 N7        30.00R                  
6HR MIN TEMP:  45; 6HR MAX TEMP:  54;                                

DETROIT        FAIR      45  34  65 N3        30.00S                  
6HR MIN TEMP:  45; 6HR MAX TEMP:  54;                                

FLINT          FAIR      39  34  82 W6        30.02S WCI  35          
6HR MIN TEMP:  38; 6HR MAX TEMP:  53;                                

GROSSE ILE     FAIR      46  36  68 N8        29.99R                  
6HR MIN TEMP:  46; 6HR MAX TEMP:  54;                                

HILLSDALE      FAIR      41  36  81 W3        30.01S                  
6HR MIN TEMP:  41; 6HR MAX TEMP:  54;                                

HOWELL         FAIR      41  34  76 NW7       30.02R                  
6HR MIN TEMP:  41; 6HR MAX TEMP:  51;                                


CITY           SKY/WX    TMP DP  RH WIND       PRES   REMARKS
JACKSON        FAIR      45  35  68 NW5       30.02R                  
6HR MIN TEMP:  42; 6HR MAX TEMP:  54;                                

LAMBERTVILLE   FAIR      46  39  76 W3        30.00S                  
6HR MIN TEMP:  46; 6HR MAX TEMP:  55;                                

LANSING        FAIR      42  34  73 NW5       30.05R                  
6HR MIN TEMP:  42; 6HR MAX TEMP:  53;                                

LAPEER         CLOUDY    43  36  75 NW6       30.01S                  
6HR MIN TEMP:  43; 6HR MAX TEMP:  51;                                

MASON          FAIR      43  36  75 N7        30.03S                  
6HR MIN TEMP:  42; 6HR MAX TEMP:  53;                                

MONROE         FAIR      44  44  99 NW5       29.99S                  
6HR MIN TEMP:  44; 6HR MAX TEMP:  55;                                

MT. CLEMENS    FAIR      42  37  83 NW6       29.98R                  
6HR MIN TEMP:  42; 6HR MAX TEMP:  53;                                

PONTIAC        FAIR      42  35  76 NW14      29.98S                  
6HR MIN TEMP:  41; 6HR MAX TEMP:  52;                                

PORT HOPE        N/A     42  35  76 NW13G21   29.97R                  
6HR MIN TEMP:  42; 6HR MAX TEMP:  45;                                

TRI CITIES     FAIR      40  35  83 NW7       30.03R                  
6HR MIN TEMP:  40; 6HR MAX TEMP:  50;                                

MIDLAND        FAIR      40  33  77 NW5       30.03R                  
6HR MIN TEMP:  40; 6HR MAX TEMP:  49;                                

TROY           FAIR      43  32  63 NW7       30.02S                  
SAGINAW HB     FAIR      41  36  81 W6        30.02S                  
$$
MIZ043>046-050>051-056>058-064>065-071>073-077>080-240700-
SOUTHWEST LOWER MICHIGAN
  
CITY           SKY/WX    TMP DP  RH WIND       PRES   REMARKS
BATTLE CREEK   FAIR      41  36  82 NW7       30.04R                  
6HR MIN TEMP:  40; 6HR MAX TEMP:  53;                                

BENTON HARBOR  FAIR      37  33  85 CALM      30.05F                  
6HR MIN TEMP:  36; 6HR MAX TEMP:  45;                                

BIG RAPIDS     FAIR      38  32  81 NW3       30.04S                  
6HR MIN TEMP:  37; 6HR MAX TEMP:  50;                                

COLDWATER      FAIR      42  38  84 NW6       30.02F                  
6HR MIN TEMP:  40; 6HR MAX TEMP:  54;                                

FREMONT        FAIR      37  31  81 CALM      30.05S                  
6HR MIN TEMP:  37; 6HR MAX TEMP:  53;                                

HOLLAND        FAIR      37  34  89 CALM      30.06S                  
6HR MIN TEMP:  37; 6HR MAX TEMP:  51;                                

GRAND RAPIDS   FAIR      41  30  65 N6        30.05S                  
6HR MIN TEMP:  41; 6HR MAX TEMP:  53;                                

IONIA          FAIR      41  30  65 NW3       30.04S                  
KALAMAZOO      FAIR      37  34  89 NW5       30.04S WCI  33          
6HR MIN TEMP:  37; 6HR MAX TEMP:  52;                                

LUDINGTON      FAIR      32  32  98 CALM      30.06S                  
6HR MIN TEMP:  32; 6HR MAX TEMP:  49;                                

MARSHALL       FAIR      41  35  77 CALM      30.03S                  
6HR MIN TEMP:  41; 6HR MAX TEMP:  54;                                

MOUNT PLEASANT FAIR      40  33  75 NW5       30.03S                  
6HR MIN TEMP:  40; 6HR MAX TEMP:  50;                                

MUSKEGON       FAIR      37  32  82 CALM      30.06S                  
6HR MIN TEMP:  35; 6HR MAX TEMP:  54;                                

SOUTH HAVEN    FAIR      38  36  90 CALM      30.05F                  
$$
MIZ016>042-240700-
NORTHERN LOWER MICHIGAN
  
CITY           SKY/WX    TMP DP  RH WIND       PRES   REMARKS
ALPENA         FAIR      39  31  72 NW7       30.00S WCI  34          
6HR MIN TEMP:  39; 6HR MAX TEMP:  46;                                

BEAVER ISLAND  FAIR      28  27  96 CALM      30.04F                  
6HR MIN TEMP:  28; 6HR MAX TEMP:  43;                                

BELLAIRE       FAIR      32  30  94 CALM      30.05S                  
6HR MIN TEMP:  31; 6HR MAX TEMP:  46;                                

CADILLAC       FAIR      37  32  81 CALM      30.03S                  
CHARLEVOIX     FAIR      32  30  94 CALM      30.07F                  
6HR MIN TEMP:  32; 6HR MAX TEMP:  41;                                

FRANKFORT      FAIR      37  32  84 CALM      30.05F                  
GAYLORD        FAIR      34  32  92 NW3       30.02S                  
6HR MIN TEMP:  33; 6HR MAX TEMP:  41;                                

GRAYLING         N/A     31  30  97 NW6       30.02R WCI  25          
6HR MIN TEMP:  30; 6HR MAX TEMP:  43;                                

HARBOR SPRINGS FAIR      32  31  97 CALM      30.03F                  
HOUGHTON LAKE  FAIR      35  30  82 NW7       30.03R WCI  29          
6HR MIN TEMP:  35; 6HR MAX TEMP:  43;                                

MANISTEE       FAIR      31  30  96 CALM      30.05S                  
OSCODA         FAIR      38  31  78 NW10      29.99R WCI  30          
6HR MIN TEMP:  38; 6HR MAX TEMP:  45;                                

PELLSTON       FAIR      33  29  85 NW3       30.03F                  
6HR MIN TEMP:  32; 6HR MAX TEMP:  46;                                

ROGERS CITY    FAIR      36  32  84 W7        30.02S WCI  31          
TRAVERSE CITY  FAIR      33  31  92 CALM      30.05S                  
6HR MIN TEMP:  33; 6HR MAX TEMP:  46;                                

$$
MIZ007>008-015-240700-
EASTERN UPPER MICHIGAN
  
CITY           SKY/WX    TMP DP  RH WIND       PRES   REMARKS
KINROSS        FAIR      29  28  96 W6        30.02R WCI  23          
6HR MIN TEMP:  29; 6HR MAX TEMP:  41;                                

MACKINAC ISLAN FAIR      34  30  85 W7        30.02S WCI  28          
6HR MIN TEMP:  34; 6HR MAX TEMP:  42;                                

NEWBERRY       FAIR      31  29  92 CALM      30.01F                  
6HR MIN TEMP:  31; 6HR MAX TEMP:  43;                                

S. S. MARIE    FAIR      35  30  82 W10       29.99S WCI  27          
6HR MIN TEMP:  35; 6HR MAX TEMP:  45;                                

MUNISING         N/A     30  24  78 S7        30.03S WCI  23          
6HR MIN TEMP:  30; 6HR MAX TEMP:  42;                                

$$
MIZ004>006-011>014-085-240700-
CENTRAL UPPER MICHIGAN
  
CITY           SKY/WX    TMP DP  RH WIND       PRES   REMARKS
MANISTIQUE     FAIR      27  22  80 CALM      30.03S                  
6HR MIN TEMP:  26; 6HR MAX TEMP:  45;                                

ESCANABA       FAIR      28  27  96 CALM      30.04F                  
6HR MIN TEMP:  28; 6HR MAX TEMP:  48;                                

MENOMINEE      FAIR      32  30  92 CALM      30.07F                  
6HR MIN TEMP:  32; 6HR MAX TEMP:  44;                                

SAWYER-GWINN   FAIR      30  26  83 CALM      30.02S                  
6HR MIN TEMP:  29; 6HR MAX TEMP:  45;                                

$$
MIZ001>003-009>011-084-240700-
WESTERN UPPER MICHIGAN
  
CITY           SKY/WX    TMP DP  RH WIND       PRES   REMARKS
IRON MOUNTAIN  FAIR      36  28  73 CALM      30.03S                  
6HR MIN TEMP:  31; 6HR MAX TEMP:  55;                                

HOUGHTON       FAIR      39  23  52 SE5       29.98F                  
6HR MIN TEMP:  36; 6HR MAX TEMP:  48;                                

COPPER HARBOR    N/A     33  27  78 SW5       30.00F WCI  29          
6HR MIN TEMP:  30; 6HR MAX TEMP:  45;                                

IRONWOOD       FAIR      48  25  40 S6        29.97F                  
6HR MIN TEMP:  40; 6HR MAX TEMP:  53;                                

$$

ABBREVIATIONS USED IN REMARKS
   TC - TEMPERATURE IN CELSIUS
  WCI - WIND CHILL INDEX
   HX - HEAT INDEX
  VSB - VISIBILITY